Location: Erdweis
(48.5167°N, 15.3500°E)
Time: 02:20:51
(UTC+00:00)

Cosmos 2263 Rocket - Pass Details

Date: 18 September 2020
Orbit: 822 x 850 km, 71.0° (Epoch: 29 October)

Event Time Altitude Azimuth Distance (km) Brightness Sun altitude
Rises 17:47:55 0° 200° (SSW) 3,344 5.4 -8.0°
Reaches altitude 10° 17:50:20 10° 199° (SSW) 2,416 4.7 -8.4°
Maximum altitude 17:55:51 75° 115° (ESE) 858 2.1 -9.3°
Drops below altitude 10° 18:01:26 10° 31° (NNE) 2,445 4.4 -10.2°
Sets 18:03:53 0° 30° (NNE) 3,387 5.2 -10.6°
